Location: Utrecht
(52.0907°N, 5.1214°E)
Time: 15:39:38
(UTC+02:00)

ESTCUBE 1 - Pass Details

Date: 30 June 2022
Orbit: 645 x 657 km, 97.9° (Epoch: 18 August)

Event Time Altitude Azimuth Distance (km) Brightness Sun altitude
Exits shadow 00:17:52 12° 197° (SSW) 1,920 ? -12.4°
Maximum altitude 00:21:40 37° 263° (W) 1,013 ? -12.6°
Drops below altitude 10° 00:25:51 10° 331° (NNW) 2,062 ? -12.8°
Sets 00:28:13 0° 340° (NNW) 2,980 ? -13.0°
